Showing default

GGSE 5, 2834

Orbit data source: Space-Track

GGSE 5, 2834 is an American payload satellite in LEO that was launched on Wed, 31 May 1967 UTC via a THOR SLV-2 AGENA D launch vehicle from the Air Force Western Test Range (AFWTR). Payloads include a variety of satellites, spacecraft, and rockets equipped with specific instruments for various scientific and technological missions. These include communications satellites like Starlink; space stations such as the ISS; scientific satellites like the Hubble; Earth observation satellites from companies like Planet Labs, Umbra, and HawkEye 360; GPS; miniature CubeSats for education and research; and military/defense satellites.

Loading next visibility...
GGSE 5 details
Identifier
2834, 1967-053D
Orbit
LEO
Last TLE update1 day ago
Origin
Flag of USNRO/NRL (US)
ManufacturerNRL
MissionDefense Technology
Bus & MotorNRL MULTI, Unknown motor
Mass105 kg wet, 105 kg dry
Launch date (UTC)
1967-05-31 (58 years ago)
Launch vehicle
THOR SLV-2 AGENA D
Launch site
Air Force Western Test Range (AFWTR)
Object type
Payload
Rocket body
Debris
Shape & HBREll + 2 Ant, 18 m
Radar Cross Section1.247 m², Medium (>0.1 m² and < 1m²)

Expand to show TLE details & history

TLE from 1 day ago
0 GGSE 5
1 02834U 67053D   25042.55087603  .00000052  00000-0  76831-4 0  9991
2 02834  69.9722 103.5607 0005378 145.2793 214.8664 13.96099735937653
Epoch: 2025-02-11T13:13Z
Definitive object data (Epoch: 2025-02-11T13:13:15.689Z)
Latitude-0.00004°
Longitude123.39124°
Altitude912.859 km
Speed7.394 km/s
True Right ascension06h 54m 14s
True Declination0° 00' 00"
Sunlit
Object was in full shadow at TLE epoch
Visualization TLE readout
Latitude-39.04242°
Longitude-41.74727°
Altitude920.774 km
Speed7.391 km/s
Apparent Right ascension23h 43m 05s
Apparent Declination-64° 24' 59"
Sunlit
Object is in daylight
Visualization observer readout
Local Sidereal Time16:52:14
Azimuth146.266° SSE
Elevation-40.664°
Doppler factor1
Orbital elements
Apogee altitude909.295 km
Perigee altitude901.461 km
Semi-major axis7,283.515 km
Eccentricity0.0005378
Inclination69.9722°
RAAN103.5607°
Arg. of periapsis145.2793°
True anomaly214.83119°
Mean anomaly214.8664°
Eccentric anomaly214.84879°
Mean motion3.49166 °/min
BSTAR0.000076831
Orbital period103.1 mins
Loading maneuver chart data...
Loading historical data...
Loading historical data...
Loading historical data...
Loading historical data...
Loading historical data...
Loading historical data...
Loading historical data...

GGSE 5 Visibility forecast

Observer location: undefined°, undefined

Span
Click to sort rows by Start time (UTC) header in descending order
Start Az.
Max El. time (UTC)
Max El. Az.
Max El.
End time (UTC)
End Az.
11 mins2025-02-12 15:35:10.355Z322.961° NNW2025-02-12 15:41:10.355Z240.793° WSW34.996°2025-02-12 15:46:10.355Z182.425° SSW
9 mins2025-02-13 04:54:10.355Z186.13° SSW2025-02-13 04:58:10.355Z107.136° ESE42.054°2025-02-13 05:03:10.355Z32.041° NE
7 mins2025-02-13 06:41:10.355Z271.788° WNW2025-02-13 06:44:10.355Z308.582° NW20.195°2025-02-13 06:48:10.355Z354.499° N
9 mins2025-02-13 13:56:10.355Z359.898° N2025-02-13 14:00:10.355Z63.186° ENE31.37°2025-02-13 14:05:10.355Z123.88° SE
|